DW9686 Weather Reports


time (UTC)temp
F
wind
direction
speed
knots
gust
knots
rain 1hr
in
rain 24hr
in
rain mn
in
humidity
%
barometer
mb
20260831124540 50 248 1.7 4.3 0.00 0.00 0.00 73 1014.5
20260831123042 50 248 2.6 7.0 0.00 0.00 0.00 74 1014.3
20260831121545 50 211 2.6 5.2 0.00 0.00 0.00 74 1014.4
20260831120042 51 207 1.7 3.5 0.00 0.00 0.00 74 1014.3
20260831114550 51 207 1.7 3.5 0.00 0.00 0.00 74 1014.2
20260831113040 51 206 1.7 3.5 0.00 0.00 0.00 74 1014.4
20260831111544 51 206 0.9 3.5 0.00 0.00 0.00 74 1014.5
20260831110040 52 206 1.7 3.5 0.00 0.00 0.00 73 1014.4
20260831104543 53 206 1.7 3.5 0.00 0.00 0.00 72 1014.3
20260831103040 54 205 1.7 4.3 0.00 0.00 0.00 70 1014.3
20260831101540 56 205 1.7 3.5 0.00 0.00 0.00 66 1014.4
20260831100100 56 205 1.7 3.5 0.00 0.00 0.00 65 1014.4
20260831094536 56 205 1.7 3.5 0.00 0.00 0.00 65 1014.5
20260831093041 57 205 1.7 3.5 0.00 0.00 0.00 64 1014.7
20260831091546 57 205 1.7 2.6 0.00 0.00 0.00 63 1014.8
20260831090037 57 205 1.7 3.5 0.00 0.00 0.00 65 1014.9
20260831084556 56 205 1.7 2.6 0.00 0.00 0.00 68 1015.0
20260831083042 56 205 0.0 4.3 0.00 0.00 0.00 68 1015.0
20260831081537 56 202 1.7 3.5 0.00 0.00 0.00 67 1014.8
20260831080038 57 202 1.7 3.5 0.00 0.00 0.00 67 1014.8
20260831074549 57 0 0.0 0.0 0.00 0.00 0.00 67 1014.8
20260831073043 59 0 0.0 3.5 0.00 0.00 0.00 63 1014.9
20260831071536 59 202 1.7 3.5 0.00 0.00 0.00 61 1014.9
20260831070040 60 202 1.7 3.5 0.00 0.00 0.00 61 1014.9
20260831064539 60 202 1.7 3.5 0.00 0.00 0.00 61 1014.9
20260831063039 61 202 1.7 3.5 0.00 0.00 0.00 60 1014.9
20260831061540 61 202 1.7 3.5 0.00 0.00 0.00 59 1014.9
20260831060058 62 202 1.7 3.5 0.00 0.00 0.00 58 1015.0
20260831054537 62 202 0.9 2.6 0.00 0.00 0.00 58 1015.0
20260831053041 63 202 1.7 3.5 0.00 0.00 0.00 56 1015.0
20260831051543 63 202 0.9 2.6 0.00 0.00 0.00 55 1015.0
20260831050057 63 202 1.7 2.6 0.00 0.00 0.00 56 1015.0
20260831044543 63 202 1.7 2.6 0.00 0.00 0.00 57 1015.1
20260831043044 62 202 0.9 2.6 0.00 0.00 0.00 59 1015.1
20260831041551 62 202 0.9 2.6 0.00 0.00 0.00 60 1015.0
20260831040037 62 202 1.7 2.6 0.00 0.00 0.00 60 1015.1
20260831034540 62 202 0.9 2.6 0.00 0.00 0.00 62 1015.2
20260831033042 63 0 0.0 2.6 0.00 0.00 0.00 61 1014.9
20260831031543 64 202 0.9 2.6 0.00 0.00 0.00 60 1014.8
20260831030040 65 202 0.0 1.7 0.00 0.00 0.00 59 1014.6
20260831024541 66 202 0.0 1.7 0.00 0.00 0.00 56 1014.5
20260831023041 68 0 0.0 2.6 0.00 0.00 0.00 54 1014.6
20260831021544 70 202 0.9 2.6 0.00 0.00 0.00 51 1014.8
20260831020039 71 202 1.7 2.6 0.00 0.00 0.00 49 1014.7
20260831014540 72 202 1.7 4.3 0.00 0.00 0.00 47 1014.6
20260831013052 74 202 2.6 4.3 0.00 0.00 0.00 46 1014.5
20260831011537 74 202 1.7 4.3 0.00 0.00 0.00 40 1014.8
20260831010036 74 202 1.7 4.3 0.00 0.00 0.00 36 1015.0
20260831004544 75 202 0.9 3.5 0.00 0.00 0.00 38 1014.8
20260831003048 75 202 1.7 5.2 0.00 0.00 0.00 37 1015.0
20260831001538 75 209 0.9 5.2 0.00 0.00 0.00 37 1015.1
20260831000035 76 0 0.0 3.5 0.00 0.00 0.00 36 1015.2
20260830234550 76 0 0.9 4.3 0.00 0.00 0.00 37 1015.3
20260830233040 75 0 0.9 4.3 0.00 0.00 0.00 38 1015.5
20260830231544 75 221 0.0 3.5 0.00 0.00 0.00 36 1015.6
20260830230041 74 0 1.7 4.3 0.00 0.00 0.00 38 1015.8
20260830224550 74 221 0.0 5.2 0.00 0.00 0.00 39 1015.9
20260830223037 73 0 0.0 7.0 0.00 0.00 0.00 42 1016.1
20260830221539 73 216 2.6 5.2 0.00 0.00 0.00 46 1016.3
20260830220039 72 0 0.9 6.1 0.00 0.00 0.00 44 1016.5
20260830214538 72 215 1.7 6.1 0.00 0.00 0.00 46 1016.8
20260830213039 72 217 1.7 5.2 0.00 0.00 0.00 47 1017.2
20260830211537 71 220 3.5 7.8 0.00 0.00 0.00 50 1017.2
20260830210051 70 206 3.5 7.0 0.00 0.00 0.00 52 1017.3
20260830204539 70 215 4.3 7.8 0.00 0.00 0.00 51 1017.4
20260830203041 69 171 2.6 8.7 0.00 0.00 0.00 52 1017.4
20260830201539 68 207 1.7 7.0 0.00 0.00 0.00 55 1017.5
20260830200057 68 216 4.3 9.6 0.00 0.00 0.00 56 1017.6
20260830194549 67 192 3.5 8.7 0.00 0.00 0.00 57 1017.8
20260830193039 67 201 3.5 10.4 0.00 0.00 0.00 56 1018.0
20260830191539 67 178 5.2 7.0 0.00 0.00 0.00 57 1018.1
20260830190039 66 217 6.1 8.7 0.00 0.00 0.00 61 1018.1
20260830184539 66 169 5.2 10.4 0.00 0.00 0.00 59 1018.1
20260830183038 66 192 7.0 12.2 0.00 0.00 0.00 60 1018.1
20260830181539 65 189 6.1 10.4 0.00 0.00 0.00 62 1018.4
20260830180038 64 194 6.1 10.4 0.00 0.00 0.00 62 1018.5
20260830174541 63 215 7.0 10.4 0.00 0.00 0.00 61 1018.5
20260830173059 63 173 7.0 10.4 0.00 0.00 0.00 62 1018.6
20260830171539 63 205 4.3 8.7 0.00 0.00 0.00 68 1018.4
20260830170040 62 214 5.2 9.6 0.00 0.00 0.00 67 1018.5
20260830164545 62 221 6.1 10.4 0.00 0.00 0.00 69 1018.6
20260830163049 61 212 6.1 9.6 0.00 0.00 0.00 70 1018.6
20260830161559 60 204 6.1 10.4 0.00 0.00 0.00 72 1018.7
20260830160039 59 202 5.2 8.7 0.00 0.00 0.00 74 1018.6
20260830154536 58 198 5.2 7.8 0.00 0.00 0.00 76 1018.6
20260830153047 56 211 4.3 7.0 0.00 0.00 0.00 79 1018.5
20260830151541 55 242 2.6 6.1 0.00 0.00 0.00 81 1018.4
20260830150051 53 276 3.5 6.1 0.00 0.00 0.00 81 1018.4
20260830144545 53 276 1.7 3.5 0.00 0.00 0.00 80 1018.5
20260830143042 52 0 0.0 1.7 0.00 0.00 0.00 81 1018.4
20260830141543 51 0 0.0 0.0 0.00 0.00 0.00 81 1018.3
20260830140043 51 0 0.0 0.9 0.00 0.00 0.00 81 1018.2
20260830134541 49 0 0.0 0.0 0.00 0.00 0.00 81 1018.1
20260830133043 49 0 0.0 0.0 0.00 0.00 0.00 79 1018.0
20260830131553 50 0 0.0 0.9 0.00 0.00 0.00 77 1018.0
20260830130045 51 276 0.9 3.5 0.00 0.00 0.00 76 1017.9